QPF
0.01 0.01 0.01 0.00 0.01 0.01 0.00 0.01 0.01 0.00 0.00 0.00 0.00 0.01 0.01 0.01 0.01 0.01 0.01 0.02 0.02 0.03 0.04 0.05 0.06 0.09 0.10 0.11 0.14 0.21 0.25 0.22 0.24 0.26 0.18 0.12 0.10 0.08 0.05 0.04 0.02 0.02 0.01
0.00 0.01 0.01 0.00 0.01 0.01 0.00 0.00 0.00 0.00 0.00 0.00 0.00 0.00 0.00 0.00 0.00 0.00 0.00 0.00 0.00 0.00 0.01 0.01 0.03 0.04 0.05 0.08 0.11 0.15 0.17 0.16 0.21 0.21 0.20 0.14 0.10 0.07 0.06 0.05 0.05 0.04 0.03
0.01 0.01 0.00 0.00 0.00 0.00 0.00 0.00 0.00 0.00 0.00 0.00 0.00 0.00 0.00 0.00 0.00 0.00 0.00 0.00 0.00 0.00 0.00 0.00 0.01 0.02 0.02 0.02 0.04 0.07 0.09 0.10 0.13 0.14 0.17 0.15 0.10 0.11 0.10 0.09 0.06 0.04 0.03
0.01 0.01 0.01 0.00 0.00 0.00 0.00 0.00 0.00 0.00 0.00 0.00 0.00 0.00 0.00 0.00 0.00 0.00 0.00 0.00 0.00 0.00 0.00 0.00 0.00 0.01 0.01 0.01 0.01 0.03 0.04 0.06 0.06 0.07 0.08 0.10 0.13 0.13 0.10 0.08 0.04 0.02 0.02
0.01 0.01 0.01 0.01 0.01 0.01 0.01 0.00 0.00 0.00 0.00 0.00 0.00 0.00 0.00 0.00 0.00 0.00 0.00 0.00 0.00 0.00 0.00 0.00 0.00 0.01 0.01 0.01 0.02 0.02 0.03 0.03 0.03 0.04 0.05 0.06 0.08 0.08 0.07 0.05 0.04 0.03 0.02
0.02 0.01 0.01 0.01 0.01 0.01 0.01 0.00 0.00 0.00 0.00 0.00 0.00 0.00 0.00 0.00 0.00 0.00 0.00 0.00 0.00 0.00 0.00 0.00 0.00 0.00 0.01 0.01 0.02 0.02 0.02 0.03 0.03 0.04 0.05 0.05 0.04 0.03 0.04 0.03 0.04 0.05 0.04
0.03 0.02 0.01 0.01 0.01 0.01 0.01 0.00 0.00 0.01 0.00 0.00 0.00 0.00 0.00 0.00 0.00 0.00 0.00 0.00 0.00 0.00 0.00 0.00 0.00 0.00 0.01 0.01 0.02 0.02 0.03 0.03 0.04 0.04 0.05 0.05 0.05 0.06 0.07 0.06 0.06 0.07 0.07
0.03 0.03 0.02 0.01 0.00 0.00 0.00 0.01 0.01 0.01 0.01 0.01 0.00 0.00 0.00 0.00 0.00 0.00 0.00 0.00 0.00 0.00 0.00 0.00 0.00 0.00 0.00 0.01 0.01 0.02 0.03 0.04 0.05 0.05 0.06 0.07 0.07 0.07 0.07 0.08 0.09 0.08 0.09
0.03 0.04 0.03 0.03 0.02 0.01 0.01 0.01 0.01 0.01 0.00 0.00 0.00 0.00 0.01 0.01 0.00 0.00 0.00 0.00 0.00 0.00 0.00 0.00 0.00 0.00 0.00 0.00 0.01 0.02 0.02 0.04 0.05 0.06 0.08 0.09 0.09 0.09 0.09 0.10 0.11 0.11 0.11
0.03 0.04 0.04 0.03 0.02 0.02 0.02 0.01 0.01 0.01 0.01 0.01 0.00 0.01 0.00 0.00 0.00 0.00 0.00 0.00 0.00 0.00 0.00 0.00 0.00 0.00 0.00 0.00 0.01 0.02 0.03 0.04 0.05 0.07 0.07 0.08 0.09 0.11 0.11 0.12 0.14 0.16 0.16
0.02 0.02 0.02 0.02 0.01 0.01 0.01 0.01 0.01 0.01 0.01 0.01 0.00 0.00 0.00 0.00 0.00 0.00 0.01 0.01 0.00 0.00 0.00 0.00 0.00 0.00 0.00 0.01 0.01 0.02 0.04 0.04 0.06 0.07 0.08 0.09 0.10 0.12 0.14 0.15 0.16 0.18 0.19
0.01 0.01 0.01 0.01 0.01 0.01 0.01 0.01 0.00 0.00 0.00 0.00 0.00 0.00 0.00 0.00 0.00 0.00 0.01 0.01 0.01 0.00 0.00 0.00 0.00 0.00 0.00 0.01 0.01 0.02 0.03 0.04 0.06 0.07 0.09 0.10 0.12 0.14 0.15 0.16 0.16 0.16 0.17
0.00 0.00 0.01 0.01 0.01 0.01 0.01 0.01 0.00 0.00 0.00 0.00 0.00 0.00 0.00 0.00 0.00 0.01 0.01 0.01 0.01 0.01 0.01 0.00 0.00 0.00 0.00 0.01 0.01 0.02 0.03 0.04 0.05 0.07 0.09 0.11 0.13 0.14 0.14 0.15 0.15 0.14 0.14
0.00 0.00 0.00 0.00 0.01 0.01 0.01 0.00 0.00 0.00 0.00 0.00 0.01 0.01 0.01 0.01 0.01 0.01 0.01 0.01 0.01 0.01 0.01 0.01 0.00 0.00 0.00 0.00 0.01 0.01 0.01 0.03 0.04 0.06 0.09 0.12 0.14 0.15 0.15 0.15 0.15 0.15 0.14
0.00 0.00 0.00 0.01 0.01 0.01 0.01 0.00 0.00 0.00 0.00 0.00 0.00 0.00 0.00 0.00 0.00 0.01 0.01 0.01 0.01 0.01 0.01 0.01 0.01 0.01 0.00 0.00 0.01 0.01 0.01 0.02 0.03 0.05 0.09 0.13 0.16 0.18 0.17 0.16 0.18 0.19 0.16
0.01 0.01 0.01 0.01 0.01 0.01 0.01 0.01 0.01 0.01 0.01 0.01 0.00 0.00 0.00 0.00 0.00 0.00 0.01 0.01 0.01 0.02 0.02 0.02 0.02 0.01 0.01 0.00 0.00 0.00 0.01 0.01 0.03 0.04 0.07 0.12 0.14 0.16 0.17 0.16 0.16 0.17 0.16
0.01 0.01 0.01 0.01 0.01 0.01 0.01 0.01 0.00 0.00 0.00 0.00 0.00 0.00 0.00 0.00 0.00 0.00 0.01 0.01 0.02 0.03 0.03 0.03 0.03 0.02 0.02 0.00 0.00 0.00 0.00 0.01 0.01 0.02 0.03 0.08 0.13 0.12 0.11 0.10 0.09 0.08 0.07
0.00 0.00 0.00 0.00 0.00 0.00 0.00 0.00 0.00 0.00 0.00 0.00 0.00 0.00 0.00 0.00 0.00 0.00 0.01 0.02 0.04 0.04 0.04 0.04 0.04 0.04 0.03 0.01 0.00 0.00 0.00 0.01 0.01 0.01 0.02 0.04 0.05 0.05 0.05 0.04 0.03 0.03 0.02
0.00 0.00 0.00 0.00 0.00 0.00 0.00 0.00 0.00 0.00 0.00 0.00 0.00 0.00 0.00 0.00 0.00 0.00 0.01 0.03 0.05 0.06 0.07 0.08 0.07 0.07 0.06 0.02 0.00 0.01 0.01 0.02 0.02 0.02 0.02 0.02 0.01 0.01 0.02 0.02 0.02 0.01 0.01
0.00 0.00 0.00 0.00 0.00 0.00 0.00 0.00 0.00 0.00 0.00 0.00 0.00 0.00 0.00 0.00 0.00 0.01 0.01 0.04 0.06 0.08 0.10 0.10 0.10 0.10 0.09 0.06 0.01 0.01 0.02 0.02 0.02 0.02 0.02 0.02 0.01 0.01 0.01 0.02 0.02 0.01 0.00
0.00 0.00 0.00 0.00 0.00 0.00 0.00 0.00 0.00 0.00 0.00 0.00 0.00 0.00 0.00 0.01 0.01 0.01 0.02 0.04 0.09 0.13 0.15 0.14 0.14 0.14 0.13 0.11 0.04 0.01 0.03 0.03 0.02 0.02 0.01 0.00 0.00 0.00 0.01 0.01 0.02 0.01 0.00
0.00 0.00 0.00 0.00 0.00 0.00 0.00 0.00 0.00 0.00 0.00 0.00 0.00 0.00 0.01 0.00 0.00 0.01 0.02 0.05 0.11 0.17 0.22 0.23 0.21 0.19 0.18 0.14 0.08 0.02 0.02 0.02 0.01 0.02 0.01 0.00 0.00 0.00 0.00 0.01 0.01 0.00 0.00
0.00 0.00 0.00 0.00 0.00 0.00 0.00 0.00 0.00 0.00 0.00 0.01 0.01 0.01 0.01 0.00 0.01 0.01 0.02 0.05 0.12 0.22 0.29 0.32 0.31 0.27 0.22 0.16 0.08 0.03 0.01 0.01 0.02 0.01 0.00 0.00 0.00 0.00 0.00 0.00 0.00 0.00 0.00
0.00 0.00 0.00 0.00 0.00 0.00 0.00 0.00 0.00 0.00 0.01 0.01 0.01 0.01 0.01 0.01 0.01 0.02 0.02 0.04 0.12 0.26 0.36 0.39 0.38 0.36 0.30 0.20 0.10 0.04 0.02 0.01 0.01 0.00 0.00 0.00 0.00 0.00 0.00 0.00 0.00 0.00 0.00
0.00 0.00 0.00 0.00 0.00 0.00 0.00 0.00 0.00 0.01 0.01 0.01 0.01 0.01 0.01 0.01 0.01 0.02 0.03 0.04 0.09 0.23 0.37 0.43 0.43 0.42 0.37 0.24 0.13 0.05 0.01 0.01 0.00 0.00 0.00 0.00 0.00 0.00 0.00 0.00 0.00 0.00 0.00
0.00 0.00 0.00 0.00 0.00 0.00 0.00 0.00 0.00 0.01 0.02 0.02 0.01 0.01 0.01 0.01 0.01 0.02 0.03 0.03 0.05 0.14 0.27 0.36 0.41 0.41 0.36 0.28 0.17 0.07 0.02 0.00 0.00 0.00 0.00 0.00 0.00 0.00 0.00 0.00 0.00 0.00 0.00
MSLP
1008.28 1008.42 1008.55 1008.68 1008.83 1009.01 1009.24 1009.54 1009.89 1010.28 1010.67 1011.02 1011.31 1011.51 1011.64 1011.69 1011.70 1011.69 1011.69 1011.70 1011.71 1011.69 1011.62 1011.47 1011.23 1010.92 1010.56 1010.19 1009.87 1009.63 1009.50 1009.49 1009.57 1009.72 1009.88 1010.00 1010.04 1009.99 1009.83 1009.60 1009.32 1009.03 1008.78
1008.34 1008.44 1008.55 1008.66 1008.79 1008.95 1009.17 1009.45 1009.79 1010.17 1010.55 1010.90 1011.19 1011.40 1011.54 1011.60 1011.62 1011.62 1011.63 1011.63 1011.62 1011.59 1011.49 1011.31 1011.04 1010.69 1010.29 1009.88 1009.51 1009.22 1009.05 1008.99 1009.04 1009.14 1009.27 1009.36 1009.38 1009.30 1009.13 1008.89 1008.61 1008.32 1008.07
1008.53 1008.60 1008.68 1008.77 1008.88 1009.02 1009.22 1009.47 1009.78 1010.14 1010.49 1010.83 1011.11 1011.31 1011.45 1011.53 1011.56 1011.58 1011.59 1011.60 1011.59 1011.55 1011.45 1011.26 1010.97 1010.60 1010.17 1009.72 1009.30 1008.95 1008.70 1008.57 1008.54 1008.57 1008.63 1008.67 1008.65 1008.56 1008.39 1008.16 1007.91 1007.66 1007.45
1008.86 1008.92 1008.98 1009.04 1009.12 1009.23 1009.39 1009.60 1009.86 1010.17 1010.48 1010.78 1011.04 1011.24 1011.37 1011.45 1011.49 1011.52 1011.55 1011.58 1011.59 1011.56 1011.48 1011.29 1011.01 1010.63 1010.18 1009.70 1009.23 1008.81 1008.48 1008.25 1008.11 1008.05 1008.02 1007.99 1007.93 1007.83 1007.68 1007.49 1007.29 1007.11 1006.98
1009.38 1009.41 1009.44 1009.47 1009.51 1009.57 1009.67 1009.82 1010.02 1010.26 1010.52 1010.77 1010.99 1011.15 1011.27 1011.34 1011.39 1011.43 1011.48 1011.53 1011.56 1011.57 1011.50 1011.35 1011.09 1010.73 1010.28 1009.77 1009.26 1008.77 1008.34 1008.01 1007.75 1007.58 1007.45 1007.36 1007.26 1007.15 1007.04 1006.92 1006.81 1006.72 1006.68
1010.06 1010.07 1010.07 1010.06 1010.04 1010.04 1010.07 1010.14 1010.27 1010.43 1010.61 1010.80 1010.95 1011.07 1011.16 1011.21 1011.25 1011.29 1011.33 1011.40 1011.45 1011.49 1011.46 1011.35 1011.13 1010.79 1010.35 1009.84 1009.29 1008.74 1008.23 1007.79 1007.43 1007.15 1006.93 1006.77 1006.65 1006.56 1006.49 1006.46 1006.45 1006.49 1006.56
1010.91 1010.88 1010.84 1010.77 1010.69 1010.62 1010.57 1010.56 1010.60 1010.67 1010.77 1010.88 1010.96 1011.02 1011.05 1011.06 1011.06 1011.07 1011.10 1011.16 1011.22 1011.27 1011.27 1011.19 1011.01 1010.71 1010.30 1009.79 1009.23 1008.64 1008.06 1007.54 1007.09 1006.72 1006.43 1006.23 1006.10 1006.04 1006.04 1006.10 1006.22 1006.38 1006.57
1011.87 1011.81 1011.72 1011.59 1011.44 1011.30 1011.17 1011.07 1011.02 1011.01 1011.02 1011.04 1011.04 1011.02 1010.97 1010.91 1010.84 1010.80 1010.79 1010.81 1010.85 1010.89 1010.90 1010.84 1010.69 1010.42 1010.04 1009.55 1008.99 1008.38 1007.77 1007.19 1006.68 1006.26 1005.94 1005.72 1005.61 1005.59 1005.68 1005.84 1006.08 1006.36 1006.67
1012.90 1012.80 1012.66 1012.47 1012.26 1012.04 1011.84 1011.67 1011.54 1011.45 1011.37 1011.30 1011.21 1011.10 1010.96 1010.81 1010.65 1010.52 1010.43 1010.38 1010.37 1010.37 1010.36 1010.31 1010.17 1009.92 1009.57 1009.11 1008.56 1007.96 1007.34 1006.75 1006.22 1005.78 1005.46 1005.25 1005.18 1005.23 1005.40 1005.66 1006.00 1006.39 1006.80
1013.91 1013.78 1013.59 1013.35 1013.08 1012.81 1012.55 1012.32 1012.13 1011.97 1011.82 1011.66 1011.49 1011.28 1011.04 1010.78 1010.52 1010.29 1010.09 1009.95 1009.85 1009.79 1009.74 1009.65 1009.50 1009.27 1008.94 1008.51 1007.99 1007.42 1006.83 1006.26 1005.75 1005.34 1005.04 1004.88 1004.86 1004.98 1005.22 1005.57 1005.99 1006.46 1006.95
1014.83 1014.67 1014.43 1014.15 1013.84 1013.53 1013.23 1012.96 1012.73 1012.52 1012.31 1012.09 1011.83 1011.54 1011.20 1010.84 1010.47 1010.13 1009.82 1009.57 1009.38 1009.24 1009.12 1008.99 1008.82 1008.58 1008.27 1007.86 1007.39 1006.87 1006.33 1005.81 1005.36 1005.00 1004.76 1004.66 1004.70 1004.88 1005.19 1005.60 1006.08 1006.59 1007.10
1015.58 1015.38 1015.11 1014.80 1014.46 1014.12 1013.80 1013.51 1013.25 1013.01 1012.76 1012.49 1012.17 1011.80 1011.39 1010.94 1010.49 1010.04 1009.64 1009.30 1009.02 1008.79 1008.60 1008.43 1008.23 1007.98 1007.68 1007.31 1006.88 1006.42 1005.95 1005.51 1005.13 1004.85 1004.69 1004.66 1004.76 1004.99 1005.34 1005.78 1006.27 1006.79 1007.30
1016.09 1015.85 1015.55 1015.21 1014.86 1014.51 1014.18 1013.88 1013.61 1013.34 1013.06 1012.76 1012.40 1011.99 1011.52 1011.02 1010.51 1010.00 1009.54 1009.13 1008.78 1008.50 1008.25 1008.03 1007.80 1007.55 1007.26 1006.92 1006.55 1006.15 1005.76 1005.41 1005.12 1004.93 1004.85 1004.89 1005.05 1005.32 1005.69 1006.13 1006.60 1007.09 1007.56
1016.31 1016.03 1015.70 1015.33 1014.97 1014.61 1014.28 1013.98 1013.70 1013.42 1013.12 1012.79 1012.42 1011.98 1011.50 1010.98 1010.45 1009.93 1009.44 1009.01 1008.64 1008.32 1008.05 1007.80 1007.56 1007.31 1007.03 1006.73 1006.40 1006.08 1005.77 1005.51 1005.32 1005.22 1005.23 1005.33 1005.54 1005.84 1006.20 1006.62 1007.05 1007.48 1007.88
1016.21 1015.88 1015.52 1015.14 1014.76 1014.40 1014.06 1013.75 1013.46 1013.17 1012.86 1012.52 1012.14 1011.71 1011.24 1010.74 1010.23 1009.74 1009.28 1008.87 1008.51 1008.20 1007.93 1007.69 1007.45 1007.21 1006.95 1006.68 1006.41 1006.15 1005.93 1005.76 1005.66 1005.65 1005.74 1005.91 1006.16 1006.47 1006.82 1007.20 1007.58 1007.93 1008.26
1015.81 1015.43 1015.03 1014.63 1014.24 1013.86 1013.52 1013.20 1012.89 1012.58 1012.26 1011.92 1011.54 1011.13 1010.69 1010.24 1009.79 1009.36 1008.97 1008.62 1008.31 1008.05 1007.81 1007.59 1007.37 1007.14 1006.91 1006.68 1006.46 1006.26 1006.12 1006.04 1006.03 1006.11 1006.27 1006.49 1006.78 1007.11 1007.45 1007.79 1008.11 1008.41 1008.66
1015.13 1014.71 1014.28 1013.86 1013.45 1013.06 1012.70 1012.36 1012.03 1011.70 1011.37 1011.01 1010.64 1010.26 1009.87 1009.48 1009.11 1008.77 1008.47 1008.20 1007.97 1007.77 1007.58 1007.40 1007.21 1007.01 1006.81 1006.62 1006.45 1006.31 1006.24 1006.24 1006.31 1006.47 1006.70 1006.98 1007.31 1007.65 1007.98 1008.30 1008.58 1008.83 1009.02
1014.25 1013.79 1013.34 1012.90 1012.48 1012.08 1011.70 1011.33 1010.98 1010.62 1010.27 1009.91 1009.55 1009.20 1008.85 1008.53 1008.24 1007.99 1007.78 1007.60 1007.45 1007.31 1007.18 1007.04 1006.89 1006.73 1006.57 1006.42 1006.29 1006.22 1006.21 1006.28 1006.43 1006.65 1006.95 1007.28 1007.65 1008.01 1008.35 1008.66 1008.92 1009.14 1009.31
1013.26 1012.77 1012.31 1011.86 1011.43 1011.02 1010.62 1010.23 1009.85 1009.47 1009.10 1008.73 1008.38 1008.05 1007.75 1007.49 1007.27 1007.09 1006.95 1006.85 1006.76 1006.69 1006.61 1006.52 1006.41 1006.28 1006.16 1006.05 1005.98 1005.96 1006.01 1006.15 1006.36 1006.65 1007.00 1007.38 1007.78 1008.17 1008.53 1008.84 1009.11 1009.32 1009.49
1012.22 1011.73 1011.27 1010.82 1010.39 1009.97 1009.56 1009.16 1008.76 1008.36 1007.98 1007.61 1007.26 1006.95 1006.68 1006.45 1006.28 1006.15 1006.07 1006.01 1005.98 1005.95 1005.91 1005.86 1005.79 1005.71 1005.64 1005.58 1005.56 1005.60 1005.71 1005.91 1006.18 1006.51 1006.90 1007.32 1007.75 1008.16 1008.54 1008.87 1009.15 1009.38 1009.57
1011.22 1010.74 1010.28 1009.84 1009.42 1009.00 1008.58 1008.17 1007.76 1007.36 1006.98 1006.61 1006.27 1005.98 1005.72 1005.52 1005.37 1005.26 1005.20 1005.17 1005.16 1005.16 1005.16 1005.15 1005.12 1005.10 1005.08 1005.09 1005.13 1005.23 1005.40 1005.64 1005.95 1006.33 1006.75 1007.19 1007.63 1008.06 1008.45 1008.80 1009.09 1009.35 1009.56
1010.30 1009.83 1009.38 1008.95 1008.52 1008.11 1007.70 1007.29 1006.88 1006.49 1006.12 1005.76 1005.44 1005.15 1004.91 1004.71 1004.56 1004.46 1004.40 1004.38 1004.38 1004.39 1004.42 1004.45 1004.48 1004.51 1004.57 1004.64 1004.76 1004.93 1005.15 1005.44 1005.78 1006.18 1006.61 1007.05 1007.50 1007.93 1008.32 1008.68 1008.99 1009.27 1009.52
1009.48 1009.01 1008.56 1008.13 1007.70 1007.28 1006.87 1006.47 1006.09 1005.71 1005.36 1005.03 1004.72 1004.45 1004.21 1004.01 1003.85 1003.74 1003.66 1003.63 1003.63 1003.66 1003.72 1003.79 1003.89 1004.01 1004.14 1004.31 1004.50 1004.74 1005.02 1005.35 1005.71 1006.11 1006.54 1006.97 1007.40 1007.81 1008.20 1008.56 1008.88 1009.18 1009.45
1008.74 1008.26 1007.80 1007.34 1006.90 1006.47 1006.06 1005.67 1005.30 1004.95 1004.63 1004.32 1004.04 1003.78 1003.54 1003.34 1003.17 1003.03 1002.94 1002.90 1002.90 1002.95 1003.05 1003.19 1003.36 1003.56 1003.79 1004.05 1004.34 1004.65 1004.98 1005.34 1005.72 1006.11 1006.52 1006.93 1007.33 1007.72 1008.10 1008.45 1008.78 1009.08 1009.38
1008.07 1007.55 1007.05 1006.56 1006.08 1005.63 1005.21 1004.81 1004.46 1004.13 1003.83 1003.56 1003.30 1003.06 1002.83 1002.62 1002.43 1002.28 1002.18 1002.13 1002.14 1002.22 1002.37 1002.57 1002.83 1003.13 1003.46 1003.82 1004.19 1004.57 1004.96 1005.34 1005.72 1006.11 1006.49 1006.87 1007.25 1007.62 1007.98 1008.32 1008.66 1008.98 1009.30
1007.42 1006.85 1006.28 1005.73 1005.20 1004.70 1004.26 1003.86 1003.51 1003.20 1002.93 1002.68 1002.44 1002.21 1001.99 1001.77 1001.58 1001.42 1001.31 1001.27 1001.30 1001.41 1001.61 1001.89 1002.23 1002.63 1003.06 1003.51 1003.96 1004.40 1004.83 1005.23 1005.61 1005.99 1006.35 1006.70 1007.06 1007.42 1007.78 1008.14 1008.49 1008.84 1009.19
Thickness
5808 5808 5806 5803 5798 5792 5786 5781 5776 5770 5767 5763 5759 5755 5754 5752 5751 5749 5745 5742 5740 5738 5736 5737 5736 5734 5733 5732 5731 5730 5729 5729 5729 5724 5724 5728 5732 5733 5733 5733 5733 5733 5734
5796 5796 5796 5793 5789 5784 5779 5774 5769 5765 5761 5757 5754 5750 5748 5747 5746 5743 5739 5736 5734 5732 5733 5730 5729 5729 5726 5725 5725 5723 5723 5724 5724 5718 5716 5717 5724 5729 5732 5731 5729 5730 5731
5788 5786 5785 5783 5780 5776 5772 5769 5764 5759 5755 5751 5749 5745 5741 5740 5740 5737 5735 5732 5728 5726 5724 5722 5722 5721 5720 5721 5719 5717 5716 5717 5718 5717 5712 5710 5715 5724 5728 5728 5728 5727 5726
5781 5778 5775 5772 5769 5767 5765 5760 5756 5752 5748 5745 5743 5739 5734 5732 5732 5730 5730 5726 5724 5721 5719 5717 5716 5714 5715 5714 5713 5715 5712 5709 5710 5712 5712 5713 5715 5711 5716 5721 5724 5724 5722
5769 5767 5765 5762 5760 5758 5755 5751 5747 5744 5741 5739 5736 5732 5730 5729 5729 5726 5723 5720 5721 5717 5715 5712 5710 5708 5708 5707 5706 5705 5704 5705 5705 5706 5707 5708 5709 5709 5707 5711 5717 5719 5721
5757 5754 5754 5752 5749 5749 5747 5744 5739 5735 5734 5732 5730 5726 5723 5721 5719 5717 5716 5716 5717 5714 5712 5707 5704 5702 5702 5701 5700 5699 5699 5699 5700 5701 5702 5702 5704 5707 5708 5708 5711 5712 5716
5743 5741 5739 5738 5737 5736 5735 5734 5730 5727 5726 5725 5722 5720 5717 5714 5711 5711 5711 5708 5709 5708 5705 5702 5698 5697 5696 5695 5695 5695 5694 5694 5694 5694 5697 5699 5702 5705 5706 5705 5707 5706 5708
5728 5726 5725 5724 5724 5723 5722 5721 5718 5716 5715 5714 5713 5711 5709 5709 5709 5706 5704 5703 5702 5702 5698 5695 5693 5692 5691 5691 5691 5691 5691 5691 5690 5691 5692 5693 5697 5699 5700 5700 5699 5697 5698
5710 5709 5708 5707 5707 5707 5706 5705 5704 5702 5701 5702 5701 5701 5700 5699 5699 5698 5696 5698 5696 5694 5692 5690 5688 5688 5687 5687 5686 5687 5686 5687 5687 5688 5688 5689 5692 5693 5695 5696 5695 5691 5688
5695 5693 5692 5691 5691 5691 5690 5689 5688 5686 5686 5687 5688 5690 5689 5690 5690 5690 5689 5688 5687 5686 5685 5684 5683 5683 5682 5682 5681 5682 5683 5683 5683 5683 5683 5684 5687 5688 5689 5689 5689 5687 5684
5681 5680 5678 5677 5676 5675 5674 5672 5671 5670 5670 5670 5671 5673 5675 5678 5679 5680 5680 5680 5680 5679 5678 5678 5677 5677 5677 5677 5677 5678 5678 5678 5679 5679 5679 5679 5680 5681 5682 5682 5681 5680 5678
5669 5667 5664 5662 5660 5658 5657 5656 5655 5654 5654 5654 5655 5657 5659 5662 5664 5668 5669 5670 5671 5672 5672 5671 5671 5671 5672 5672 5671 5671 5672 5673 5673 5674 5674 5674 5675 5674 5674 5674 5673 5672 5672
5656 5653 5650 5646 5644 5642 5640 5639 5638 5637 5637 5637 5638 5639 5641 5643 5647 5651 5655 5658 5661 5662 5664 5664 5664 5664 5665 5665 5665 5665 5665 5665 5666 5666 5666 5666 5667 5665 5665 5664 5664 5663 5662
5640 5636 5632 5629 5626 5624 5622 5622 5621 5620 5620 5620 5620 5622 5624 5626 5629 5634 5639 5644 5648 5651 5654 5655 5656 5657 5658 5658 5658 5658 5657 5657 5657 5658 5658 5658 5657 5656 5655 5654 5653 5652 5649
5621 5616 5613 5611 5609 5608 5606 5605 5604 5604 5603 5602 5603 5604 5607 5610 5613 5617 5622 5628 5633 5638 5642 5645 5647 5649 5650 5651 5650 5649 5649 5649 5648 5648 5648 5648 5647 5646 5645 5645 5642 5641 5638
5606 5603 5602 5600 5599 5597 5595 5593 5591 5589 5587 5586 5586 5588 5589 5591 5595 5599 5604 5610 5616 5622 5627 5631 5635 5638 5642 5639 5636 5637 5640 5640 5639 5637 5636 5636 5635 5633 5633 5632 5631 5631 5630
5598 5595 5592 5589 5587 5584 5582 5579 5577 5575 5573 5571 5571 5572 5572 5575 5577 5581 5585 5590 5597 5603 5609 5616 5621 5626 5628 5626 5625 5625 5630 5632 5630 5628 5626 5626 5623 5623 5622 5620 5619 5619 5619
5585 5580 5575 5572 5568 5565 5561 5558 5557 5554 5553 5552 5553 5555 5556 5557 5559 5562 5566 5571 5578 5584 5591 5598 5606 5612 5616 5615 5615 5616 5621 5623 5621 5619 5617 5615 5613 5613 5612 5611 5610 5609 5608
5567 5561 5556 5551 5546 5542 5538 5536 5534 5532 5531 5532 5532 5534 5535 5537 5539 5543 5547 5553 5558 5565 5573 5581 5589 5596 5602 5603 5604 5605 5613 5613 5611 5610 5608 5606 5604 5601 5603 5603 5602 5599 5597
5548 5542 5537 5533 5528 5525 5521 5519 5518 5516 5516 5516 5517 5517 5518 5519 5521 5525 5530 5536 5541 5547 5556 5565 5573 5582 5589 5592 5593 5595 5606 5605 5603 5600 5598 5597 5596 5592 5595 5597 5595 5593 5591
5533 5528 5525 5522 5519 5517 5513 5511 5511 5510 5509 5509 5509 5509 5509 5510 5512 5515 5518 5522 5528 5534 5540 5548 5559 5567 5575 5580 5583 5587 5597 5600 5598 5595 5594 5590 5584 5585 5587 5590 5590 5588 5588
5525 5521 5519 5518 5517 5515 5512 5511 5510 5509 5507 5507 5507 5507 5507 5508 5511 5512 5514 5516 5519 5524 5530 5536 5544 5554 5562 5569 5573 5577 5583 5590 5593 5592 5591 5584 5577 5578 5580 5584 5581 5582 5585
5522 5520 5518 5518 5517 5514 5512 5510 5510 5508 5507 5506 5506 5506 5506 5507 5508 5509 5511 5514 5516 5520 5526 5529 5535 5542 5551 5559 5564 5567 5572 5579 5586 5588 5582 5576 5572 5572 5575 5574 5576 5579 5585
5520 5519 5518 5517 5516 5513 5511 5509 5508 5506 5505 5505 5505 5505 5505 5506 5508 5508 5511 5513 5517 5519 5522 5524 5528 5533 5540 5550 5556 5561 5565 5568 5575 5576 5568 5566 5567 5572 5571 5570 5574 5581 5585
5518 5516 5514 5513 5512 5510 5508 5506 5505 5502 5501 5502 5502 5502 5504 5505 5506 5507 5508 5511 5513 5515 5515 5518 5520 5524 5532 5543 5552 5560 5565 5570 5575 5570 5570 5570 5572 5574 5575 5576 5579 5581 5580
5514 5512 5510 5507 5506 5504 5502 5500 5498 5496 5495 5496 5497 5498 5500 5501 5502 5504 5506 5507 5506 5506 5505 5506 5509 5517 5523 5533 5541 5550 5559 5563 5564 5568 5572 5574 5576 5578 5578 5579 5578 5579 5579